BMCB-30 Weather Reports


Display with metric or nautical units.
time (UTC)temp
F
wind
direction
speed
MPH
gust
MPH
rain 1hr
in
rain 24hr
in
rain mn
in
humidity
%
barometer
mb
20260506184046 51 0 0.0 0.0 0.00 0.59 0.50 95 1011.8
20260506183054 51 0 0.0 0.0 0.00 0.59 0.50 93 1011.8
20260506182049 51 0 0.0 0.0 0.00 0.60 0.50 93 1011.6
20260506181045 51 0 0.0 0.0 0.00 0.61 0.50 92 1011.5
20260506180048 51 0 0.0 0.0 0.00 0.61 0.50 92 1011.4
20260506175049 51 0 0.0 0.0 0.00 0.61 0.50 91 1011.3
20260506174049 51 0 0.0 0.0 0.00 0.61 0.50 90 1011.2
20260506173045 51 0 0.0 0.0 0.00 0.62 0.50 88 1011.1
20260506171050 52 0 0.0 0.0 0.00 0.63 0.50 92 1010.9
20260506170045 52 0 0.0 0.0 0.00 0.64 0.50 91 1010.9
20260506165044 52 0 0.0 0.0 0.00 0.64 0.50 90 1010.9
20260506164046 53 0 0.0 0.0 0.00 0.64 0.50 88 1010.8
20260506163046 53 0 0.0 0.0 0.00 0.65 0.50 89 1010.7
20260506162047 53 0 0.0 0.0 0.00 0.65 0.50 90 1010.7
20260506160046 52 0 0.0 0.0 0.00 0.65 0.50 88 1010.8
20260506155045 52 0 0.0 0.0 0.00 0.65 0.50 90 1010.8
20260506154050 52 0 0.0 0.0 0.00 0.66 0.50 90 1010.8
20260506153047 52 0 0.0 0.0 0.00 0.66 0.50 92 1010.8
20260506152046 52 0 0.0 0.0 0.00 0.66 0.50 90 1010.8
20260506151049 52 0 0.0 0.0 0.00 0.66 0.50 89 1010.7
20260506145047 51 0 0.0 0.0 0.00 0.66 0.50 94 1010.8
20260506144046 51 0 0.0 0.0 0.00 0.66 0.50 97 1010.9
20260506142045 51 0 0.0 0.0 0.00 0.66 0.50 96 1010.9
20260506141046 51 0 0.0 0.0 0.00 0.66 0.50 95 1010.9
20260506140052 51 0 0.0 0.0 0.00 0.66 0.50 94 1010.8
20260506135047 51 0 0.0 0.0 0.00 0.66 0.50 93 1010.8
20260506134047 51 0 0.0 0.0 0.00 0.66 0.50 93 1010.8
20260506133045 51 0 0.0 0.0 0.00 0.66 0.50 95 1010.8
20260506132046 51 0 0.0 0.0 0.00 0.66 0.50 95 1010.8
20260506131046 51 0 0.0 0.0 0.00 0.66 0.50 94 1010.8
20260506130046 51 0 0.0 0.0 0.00 0.66 0.50 94 1010.7
20260506125047 51 0 0.0 0.0 0.00 0.66 0.50 94 1010.7
20260506124045 52 0 0.0 0.0 0.00 0.66 0.50 94 1010.5
20260506123047 52 0 0.0 0.0 0.00 0.66 0.50 95 1010.4
20260506122046 51 0 0.0 0.0 0.00 0.66 0.50 95 1010.3
20260506121045 51 0 0.0 0.0 0.00 0.66 0.50 96 1010.3
20260506120044 50 0 0.0 0.0 0.00 0.66 0.50 97 1010.2
20260506115045 50 0 0.0 0.0 0.00 0.66 0.50 97 1010.2
20260506114047 50 0 0.0 0.0 0.00 0.66 0.50 99 1010.0
20260506113050 50 0 0.0 0.0 0.01 0.66 0.50 10 1010.0
20260506112047 50 0 0.0 0.0 0.01 0.66 0.50 10 1010.0
20260506110044 50 0 0.0 0.0 0.01 0.66 0.50 10 1010.1
20260506105045 49 0 0.0 0.0 0.01 0.66 0.50 10 1010.1
20260506104045 49 0 0.0 0.0 0.02 0.66 0.50 10 1010.1
20260506103048 49 0 0.0 0.0 0.02 0.66 0.50 10 1010.1
20260506102050 49 0 0.0 0.0 0.02 0.65 0.50 10 1010.1
20260506100043 49 0 0.0 0.0 0.03 0.65 0.50 10 1010.0
20260506095046 48 0 0.0 0.0 0.03 0.65 0.50 10 1010.0
20260506093045 48 0 0.0 0.0 0.04 0.65 0.49 10 1009.9
20260506092047 48 0 0.0 0.0 0.05 0.65 0.49 10 1009.8
20260506091046 48 0 0.0 0.0 0.05 0.64 0.48 10 1009.7
20260506090047 48 0 0.0 0.0 0.04 0.63 0.47 10 1009.8
20260506085045 47 0 0.0 0.0 0.04 0.62 0.46 10 1009.7
20260506084044 47 0 0.0 0.0 0.04 0.62 0.46 10 1009.6
20260506083044 47 0 0.0 0.0 0.03 0.61 0.46 10 1009.5
20260506082046 47 0 0.0 0.0 0.02 0.61 0.45 10 1009.4
20260506073043 46 0 0.0 0.0 0.02 0.58 0.43 10 1009.1
20260506072043 46 0 0.0 0.0 0.02 0.58 0.43 10 1009.0
20260506071044 46 0 0.0 0.0 0.03 0.58 0.43 10 1009.0
20260506062044 46 0 0.0 0.0 0.06 0.56 0.40 10 1008.6
20260506061043 46 0 0.0 0.0 0.06 0.56 0.40 10 1008.6
20260506051045 46 0 0.0 0.0 0.05 0.50 0.35 10 1008.5
20260506045043 46 0 0.0 0.0 0.03 0.48 0.32 10 1008.5
20260506044045 46 0 0.0 0.0 0.04 0.48 0.32 10 1008.5
20260506042044 46 0 0.0 0.0 0.03 0.46 0.31 10 1008.4
20260506041044 46 0 0.0 0.0 0.04 0.46 0.31 10 1008.4
20260506040046 47 0 0.0 0.0 0.04 0.46 0.30 10 1008.4
20260506035046 47 0 0.0 0.0 0.04 0.46 0.30 10 1008.5
20260506034045 47 0 0.0 0.0 0.04 0.45 0.29 10 1008.5
20260506033043 47 0 0.0 0.0 0.03 0.44 0.28 10 1008.5
20260506032045 47 0 0.0 0.0 0.04 0.44 0.28 10 1008.5
20260506031043 47 0 0.0 0.0 0.04 0.43 0.28 10 1008.4
20260506030043 47 0 0.0 0.0 0.04 0.43 0.27 10 1008.5
20260506025045 47 0 0.0 0.0 0.04 0.42 0.26 10 1008.5
20260506024045 47 0 0.0 0.0 0.06 0.42 0.26 10 1008.6
20260506023045 47 0 0.0 0.0 0.06 0.41 0.25 10 1008.6
20260506022043 47 0 0.0 0.0 0.07 0.41 0.25 10 1008.6
20260506021045 47 0 0.0 0.0 0.07 0.40 0.24 10 1008.6
20260506020044 48 0 0.0 0.0 0.07 0.40 0.24 10 1008.6
20260506015044 47 0 0.0 0.0 0.07 0.39 0.23 10 1008.7
20260506014046 48 0 0.0 0.0 0.06 0.39 0.22 10 1008.7
20260506012045 48 0 0.0 0.0 0.06 0.36 0.20 10 1008.7
20260506011044 48 0 0.0 0.0 0.06 0.35 0.18 10 1008.7
20260506010040 48 0 0.0 0.0 0.06 0.34 0.17 10 1008.7
20260506004045 48 0 0.0 0.0 0.07 0.32 0.16 10 1008.8
20260506003043 48 0 0.0 0.0 0.09 0.32 0.16 10 1008.9
20260506002044 48 0 0.0 0.0 0.09 0.31 0.15 10 1009.0
20260506000048 48 0 0.0 0.0 0.08 0.29 0.13 10 1009.2
20260505235047 48 0 0.0 0.0 0.07 0.28 0.11 10 1009.3
20260505234046 48 0 0.0 0.0 0.06 0.26 0.09 10 1009.3
20260505233045 48 0 0.0 0.0 0.06 0.25 0.09 10 1009.3
20260505230048 49 0 0.0 0.0 0.06 0.22 0.06 10 1009.3
20260505225049 49 0 0.0 0.0 0.06 0.21 0.05 10 1009.3
20260505224048 48 0 0.0 0.0 0.05 0.20 0.04 10 1009.4
20260505222049 49 0 0.0 0.0 0.04 0.19 0.02 10 1009.5
20260505221050 49 0 0.0 0.0 0.03 0.18 0.02 10 1009.5
20260505220047 49 0 0.0 0.0 0.02 0.17 0.01 10 1009.5
20260505215052 49 0 0.0 0.0 0.02 0.17 0.17 10 1009.5
20260505214049 49 0 0.0 0.0 0.02 0.16 0.16 10 1009.6
20260505213048 49 0 0.0 0.0 0.02 0.16 0.16 10 1009.7
20260505212048 49 0 0.0 0.0 0.02 0.16 0.16 10 1009.6
20260505211047 49 0 0.0 0.0 0.02 0.15 0.15 10 1009.7
20260505210048 49 0 0.0 0.0 0.02 0.15 0.15 10 1009.7
20260505205049 50 0 0.0 0.0 0.02 0.15 0.15 10 1009.7
20260505204048 50 0 0.0 0.0 0.02 0.14 0.14 10 1009.8
20260505203046 50 0 0.0 0.0 0.02 0.14 0.14 10 1009.8
20260505202051 50 0 0.0 0.0 0.03 0.14 0.14 10 1009.7
20260505201049 50 0 0.0 0.0 0.03 0.13 0.13 10 1009.6
20260505200048 50 0 0.0 0.0 0.04 0.13 0.13 10 1009.6
20260505195044 50 0 0.0 0.0 0.03 0.13 0.13 10 1009.5
20260505194049 50 0 0.0 0.0 0.05 0.13 0.13 10 1009.5
20260505192047 50 0 0.0 0.0 0.05 0.12 0.12 10 1009.3
20260505191047 50 0 0.0 0.0 0.05 0.11 0.11 10 1009.3
20260505190048 50 0 0.0 0.0 0.04 0.10 0.10 10 1009.3
20260505185047 50 0 0.0 0.0 0.04 0.09 0.09 10 1009.3